Regional Weather Roundup
Issued by NWS Bismarck, ND

Home | Current Version | Previous Version | Text Only | Print | Product List | Glossary On
Versions: 1 2 3 4 5 6 7 8 9 10 11 12 13 14 15 16 17 18 19 20 21 22 23 24 25 26 27 28 29 30 31 32 33 34 35 36 37 38 39 40 41 42 43 44 45 46 47 48 49 50
000
ASUS43 KBIS 241410
RWRBIS

NWR BROADCAST TEXT
NATIONAL WEATHER SERVICE BISMARCK ND
800 AM CST SAT FEB 24 2018

NOTE: "FAIR" INDICATES FEW OR NO CLOUDS BELOW 12,000 FEET WITH NO
SIGNIFICANT WEATHER AND/OR OBSTRUCTIONS TO VISIBILITY.


CITY           SKY/WX    TMP DP  RH WIND       PRES   REMARKS
WILLISTON      FAIR      -4  -7  87 CALM      29.77F
MINOT          FAIR       9   0  67 S14       29.79F WCI  -7
MINOT AFB      CLOUDY     6  -2  69 S9          N/A  WCI  -8
BISMARCK       CLOUDY     6   2  83 SE3       29.89F
DICKINSON      LGT SNOW  10   7  87 S13       29.74S FOG     WCI  -5
GARRISON         N/A      0  -5  79 SE6       29.82F WCI -12
HETTINGER ARPT LGT SNOW   8   4  83 S5        29.79F FOG     WCI   0
JAMESTOWN      FAIR      -3  -6  87 S10       29.95F WCI -20
CARRINGTON     FAIR       7   3  85 SE9       29.93S WCI  -7
HAZEN            N/A      7   1  78 CALM      29.87S
LINTON           N/A      7   1  78 SE12G17   29.91F WCI  -9
MANDAN         CLOUDY     5   1  85 S9        29.87S WCI  -9
OAKES            N/A     -6  -9  84 S3        30.03S
RUGBY          FAIR       5   0  78 S10       29.86S WCI -10
STANLEY        FAIR       0  -4  85 CALM      29.77S
TIOGA          FAIR       3   0  85 SW8       29.74F WCI -10
WATFORD CITY   FAIR       1  -2  85 CALM      29.77R
$$

CITY           SKY/WX    TMP DP  RH WIND       PRES   REMARKS
GRAND FORKS    FAIR      -1  -5  82 S10       30.03R WCI -17
GRAND FORKS AF FAIR       1  -5  76 S10       30.00S WCI -15
DEVILS LAKE    FAIR       1  -4  79 SE9       29.91S WCI -14
FARGO          FAIR       4   1  88 S10       30.07F FOG     WCI -11
CANDO          FAIR      -4  -8  84 SE12      29.91S WCI -22
CAVALIER         N/A      0  -2  92 S12       29.97S WCI -18
GRAFTON        FAIR       0  -6  78 SE13      30.02F WCI -18
GWINNER          N/A     -4  -8  84 W3        30.03F
LANGDON        FAIR      -2  -4  92 S13       29.89S WCI -21
ROLLA          FAIR       3  -2  78 S8        29.83S WCI -10
WALHALLA       FAIR       5  -2  72 SE10      29.94F WCI -10
$$

CITY           SKY/WX    TMP DP  RH WIND       PRES   REMARKS
ABERDEEN       CLOUDY    -1  -6  79 CALM      30.02F HAZE
MOBRIDGE       CLOUDY    11   6  81 SE10      29.86F WCI  -3
BUFFALO          N/A      8   3  80 SW3       29.68S
RAPID CITY     MOCLDY    12   9  87 NW3       29.73F
GLASGOW        CLOUDY     0  -5  79 E9        29.73F WCI -15
SIDNEY         CLEAR     -7 -11  83 SW9       29.78F WCI -24
WOLF POINT     PTCLDY   -20 -27  70 CALM      29.78F
GLENDIVE       PTCLDY    -8 -13  78 S9        29.77F WCI -25
MILES CITY     MOCLDY    -9 -12  87 S8        29.80S WCI -25
BAKER          CLEAR      6   2  83 NW5       29.75S WCI  -3
$$

CITY           SKY/WX    TMP DP  RH WIND       PRES   REMARKS
BILLINGS       CLOUDY    15   4  61 SW17      29.78R WCI  -1
GREAT FALLS    CLEAR     17   7  64 SW23      29.71F WCI  -1
REGINA         PTCLDY    -2  -6  84 SE8       29.62F WCI -17
ESTEVAN        CLEAR      5  -4  66 SW9       29.73F WCI  -9
$$




USA.gov is the U.S. government's official web portal to all federal, state and local government web resources and services.